Year,Month,Day,Hour,Minute,Value (Times are PST for temperature in C)
2018,08,06,00,00,15.90
2018,08,06,00,01,15.90
2018,08,06,00,02,15.90
2018,08,06,00,03,15.90
2018,08,06,00,04,15.90
2018,08,06,00,05,15.80
2018,08,06,00,06,15.80
2018,08,06,00,07,15.80
2018,08,06,00,08,15.80
2018,08,06,00,09,15.80
2018,08,06,00,10,15.80
2018,08,06,00,11,15.80
2018,08,06,00,12,15.80
2018,08,06,00,13,15.80
2018,08,06,00,14,15.80
2018,08,06,00,15,15.80
2018,08,06,00,16,15.80
2018,08,06,00,17,15.80
2018,08,06,00,18,15.80
2018,08,06,00,19,15.70
2018,08,06,00,20,15.70
2018,08,06,00,21,15.70
2018,08,06,00,22,15.70
2018,08,06,00,23,15.70
2018,08,06,00,24,15.70
2018,08,06,00,25,15.70
2018,08,06,00,26,15.70
2018,08,06,00,27,15.70
2018,08,06,00,28,15.70
2018,08,06,00,29,15.70
2018,08,06,00,30,15.70
2018,08,06,00,31,15.70
2018,08,06,00,32,15.70
2018,08,06,00,33,15.60
2018,08,06,00,34,15.60
2018,08,06,00,35,15.60
2018,08,06,00,36,15.60
2018,08,06,00,37,15.60
2018,08,06,00,38,15.50
2018,08,06,00,39,15.50
2018,08,06,00,40,15.50
2018,08,06,00,41,15.50
2018,08,06,00,42,15.50
2018,08,06,00,43,15.50
2018,08,06,00,44,15.40
2018,08,06,00,45,15.40
2018,08,06,00,46,15.40
2018,08,06,00,47,15.40
2018,08,06,00,48,15.30
2018,08,06,00,49,15.30
2018,08,06,00,50,15.30
2018,08,06,00,51,15.30
2018,08,06,00,52,15.30
2018,08,06,00,53,15.30
2018,08,06,00,54,15.30
2018,08,06,00,55,15.30
2018,08,06,00,56,15.30
2018,08,06,00,57,15.30
2018,08,06,00,58,15.20
2018,08,06,00,59,15.20
2018,08,06,01,00,15.20
2018,08,06,01,01,15.20
2018,08,06,01,02,15.20
2018,08,06,01,03,15.20
2018,08,06,01,04,15.20
2018,08,06,01,05,15.20
2018,08,06,01,06,15.10
2018,08,06,01,07,15.10
2018,08,06,01,08,15.10
2018,08,06,01,09,15.10
2018,08,06,01,10,15.10
2018,08,06,01,11,15.10
2018,08,06,01,12,15.10
2018,08,06,01,13,15.10
2018,08,06,01,14,15.10
2018,08,06,01,15,15.10
2018,08,06,01,16,15.00
2018,08,06,01,17,15.00
2018,08,06,01,18,15.00
2018,08,06,01,19,15.00
2018,08,06,01,20,14.90
2018,08,06,01,21,14.90
2018,08,06,01,22,14.90
2018,08,06,01,23,14.90
2018,08,06,01,24,14.90
2018,08,06,01,25,14.90
2018,08,06,01,26,14.80
2018,08,06,01,27,14.80
2018,08,06,01,28,14.80
2018,08,06,01,29,14.80
2018,08,06,01,30,14.80
2018,08,06,01,31,14.80
2018,08,06,01,32,14.80
2018,08,06,01,33,14.80
2018,08,06,01,34,14.80
2018,08,06,01,35,14.80
2018,08,06,01,36,14.80
2018,08,06,01,37,14.80
2018,08,06,01,38,14.80
2018,08,06,01,39,14.80
2018,08,06,01,40,14.80
2018,08,06,01,41,14.70
2018,08,06,01,42,14.70
2018,08,06,01,43,14.70
2018,08,06,01,44,14.70
2018,08,06,01,45,14.70
2018,08,06,01,46,14.70
2018,08,06,01,47,14.70
2018,08,06,01,48,14.70
2018,08,06,01,49,14.70
2018,08,06,01,50,14.60
2018,08,06,01,51,14.60
2018,08,06,01,52,14.60
2018,08,06,01,53,14.60
2018,08,06,01,54,14.60
2018,08,06,01,55,14.60
2018,08,06,01,56,14.50
2018,08,06,01,57,14.50
2018,08,06,01,58,14.50
2018,08,06,01,59,14.50
2018,08,06,02,00,14.50
2018,08,06,02,01,14.40
2018,08,06,02,02,14.40
2018,08,06,02,03,14.40
2018,08,06,02,04,14.40
2018,08,06,02,05,14.40
2018,08,06,02,06,14.40
2018,08,06,02,07,14.30
2018,08,06,02,08,14.30
2018,08,06,02,09,14.30
2018,08,06,02,10,14.30
2018,08,06,02,11,14.30
2018,08,06,02,12,14.30
2018,08,06,02,13,14.30
2018,08,06,02,14,14.30
2018,08,06,02,15,14.30
2018,08,06,02,16,14.30
2018,08,06,02,17,14.20
2018,08,06,02,18,14.20
2018,08,06,02,19,14.20
2018,08,06,02,20,14.20
2018,08,06,02,21,14.20
2018,08,06,02,22,14.20
2018,08,06,02,23,14.20
2018,08,06,02,24,14.20
2018,08,06,02,25,14.20
2018,08,06,02,26,14.20
2018,08,06,02,27,14.20
2018,08,06,02,28,14.20
2018,08,06,02,29,14.20
2018,08,06,02,30,14.20
2018,08,06,02,31,14.20
2018,08,06,02,32,14.20
2018,08,06,02,33,14.20
2018,08,06,02,34,14.20
2018,08,06,02,35,14.20
2018,08,06,02,36,14.20
2018,08,06,02,37,14.20
2018,08,06,02,38,14.20
2018,08,06,02,39,14.20
2018,08,06,02,40,14.20
2018,08,06,02,41,14.20
2018,08,06,02,42,14.20
2018,08,06,02,43,14.10
2018,08,06,02,44,14.10
2018,08,06,02,45,14.10
2018,08,06,02,46,14.10
2018,08,06,02,47,14.10
2018,08,06,02,48,14.10
2018,08,06,02,49,14.10
2018,08,06,02,50,14.10
2018,08,06,02,51,14.00
2018,08,06,02,52,14.00
2018,08,06,02,53,14.00
2018,08,06,02,54,14.00
2018,08,06,02,55,14.00
2018,08,06,02,56,14.00
2018,08,06,02,57,14.00
2018,08,06,02,58,14.00
2018,08,06,02,59,14.00
2018,08,06,03,00,13.90
2018,08,06,03,01,13.90
2018,08,06,03,02,13.90
2018,08,06,03,03,13.90
2018,08,06,03,04,13.90
2018,08,06,03,05,13.80
2018,08,06,03,06,13.80
2018,08,06,03,07,13.80
2018,08,06,03,08,13.80
2018,08,06,03,09,13.80
2018,08,06,03,10,13.80
2018,08,06,03,11,13.80
2018,08,06,03,12,13.80
2018,08,06,03,13,13.70
2018,08,06,03,14,13.70
2018,08,06,03,15,13.70
2018,08,06,03,16,13.70
2018,08,06,03,17,13.70
2018,08,06,03,18,13.70
2018,08,06,03,19,13.70
2018,08,06,03,20,13.70
2018,08,06,03,21,13.70
2018,08,06,03,22,13.70
2018,08,06,03,23,13.70
2018,08,06,03,24,13.70
2018,08,06,03,25,13.60
2018,08,06,03,26,13.70
2018,08,06,03,27,13.70
2018,08,06,03,28,13.70
2018,08,06,03,29,13.70
2018,08,06,03,30,13.70
2018,08,06,03,31,13.70
2018,08,06,03,32,13.70
2018,08,06,03,33,13.70
2018,08,06,03,34,13.60
2018,08,06,03,35,13.60
2018,08,06,03,36,13.60
2018,08,06,03,37,13.60
2018,08,06,03,38,13.60
2018,08,06,03,39,13.60
2018,08,06,03,40,13.60
2018,08,06,03,41,13.60
2018,08,06,03,42,13.60
2018,08,06,03,43,13.60
2018,08,06,03,44,13.60
2018,08,06,03,45,13.60
2018,08,06,03,46,13.60
2018,08,06,03,47,13.60
2018,08,06,03,48,13.60
2018,08,06,03,49,13.60
2018,08,06,03,50,13.50
2018,08,06,03,51,13.50
2018,08,06,03,52,13.50
2018,08,06,03,53,13.40
2018,08,06,03,54,13.40
2018,08,06,03,55,13.40
2018,08,06,03,56,13.40
2018,08,06,03,57,13.40
2018,08,06,03,58,13.40
2018,08,06,03,59,13.40
2018,08,06,04,00,13.40
2018,08,06,04,01,13.30
2018,08,06,04,02,13.30
2018,08,06,04,03,13.30
2018,08,06,04,04,13.30
2018,08,06,04,05,13.30
2018,08,06,04,06,13.30
2018,08,06,04,07,13.30
2018,08,06,04,08,13.30
2018,08,06,04,09,13.30
2018,08,06,04,10,13.30
2018,08,06,04,11,13.30
2018,08,06,04,12,13.20
2018,08,06,04,13,13.20
2018,08,06,04,14,13.20
2018,08,06,04,15,13.20
2018,08,06,04,16,13.20
2018,08,06,04,17,13.20
2018,08,06,04,18,13.20
2018,08,06,04,19,13.20
2018,08,06,04,20,13.20
2018,08,06,04,21,13.20
2018,08,06,04,22,13.20
2018,08,06,04,23,13.20
2018,08,06,04,24,13.20
2018,08,06,04,25,13.20
2018,08,06,04,26,13.20
2018,08,06,04,27,13.10
2018,08,06,04,28,13.10
2018,08,06,04,29,13.10
2018,08,06,04,30,13.10
2018,08,06,04,31,13.10
2018,08,06,04,32,13.10
2018,08,06,04,33,13.10
2018,08,06,04,34,13.10
2018,08,06,04,35,13.10
2018,08,06,04,36,13.00
2018,08,06,04,37,13.00
2018,08,06,04,38,13.00
2018,08,06,04,39,13.00
2018,08,06,04,40,13.10
2018,08,06,04,41,13.10
2018,08,06,04,42,13.10
2018,08,06,04,43,13.10
2018,08,06,04,44,13.10
2018,08,06,04,45,13.10
2018,08,06,04,46,13.10
2018,08,06,04,47,13.10
2018,08,06,04,48,13.10
2018,08,06,04,49,13.10
2018,08,06,04,50,13.10
2018,08,06,04,51,13.10
2018,08,06,04,52,13.10
2018,08,06,04,53,13.10
2018,08,06,04,54,13.10
2018,08,06,04,55,13.00
2018,08,06,04,56,13.00
2018,08,06,04,57,13.00
2018,08,06,04,58,13.00
2018,08,06,04,59,13.00
2018,08,06,05,00,13.00
2018,08,06,05,01,12.90
2018,08,06,05,02,12.90
2018,08,06,05,03,12.90
2018,08,06,05,04,12.90
2018,08,06,05,05,13.00
2018,08,06,05,06,13.00
2018,08,06,05,07,12.90
2018,08,06,05,08,12.90
2018,08,06,05,09,12.90
2018,08,06,05,10,12.90
2018,08,06,05,11,12.90
2018,08,06,05,12,12.90
2018,08,06,05,13,12.90
2018,08,06,05,14,12.90
2018,08,06,05,15,12.90
2018,08,06,05,16,12.90
2018,08,06,05,17,12.90
2018,08,06,05,18,12.90
2018,08,06,05,19,12.80
2018,08,06,05,20,12.80
2018,08,06,05,21,12.80
2018,08,06,05,22,12.80
2018,08,06,05,23,12.80
2018,08,06,05,24,12.80
2018,08,06,05,25,12.80
2018,08,06,05,26,12.80
2018,08,06,05,27,12.80
2018,08,06,05,28,12.80
2018,08,06,05,29,12.80
2018,08,06,05,30,12.70
2018,08,06,05,31,12.70
2018,08,06,05,32,12.70
2018,08,06,05,33,12.70
2018,08,06,05,34,12.70
2018,08,06,05,35,12.80
2018,08,06,05,36,12.80
2018,08,06,05,37,12.80
2018,08,06,05,38,12.80
2018,08,06,05,39,12.80
2018,08,06,05,40,12.80
2018,08,06,05,41,12.80
2018,08,06,05,42,12.80
2018,08,06,05,43,12.80
2018,08,06,05,44,12.80
2018,08,06,05,45,12.80
2018,08,06,05,46,12.80
2018,08,06,05,47,12.70
2018,08,06,05,48,12.70
2018,08,06,05,49,12.70
2018,08,06,05,50,12.70
2018,08,06,05,51,12.70
2018,08,06,05,52,12.70
2018,08,06,05,53,12.70
2018,08,06,05,54,12.70
2018,08,06,05,55,12.70
2018,08,06,05,56,12.80
2018,08,06,05,57,12.80
2018,08,06,05,58,12.80
2018,08,06,05,59,12.80
2018,08,06,06,00,12.80
2018,08,06,06,01,12.80
2018,08,06,06,02,12.80
2018,08,06,06,03,12.80
2018,08,06,06,04,12.80
2018,08,06,06,05,12.80
2018,08,06,06,06,12.80
2018,08,06,06,07,12.80
2018,08,06,06,08,12.70
2018,08,06,06,09,12.70
2018,08,06,06,10,12.70
2018,08,06,06,11,12.70
2018,08,06,06,12,12.70
2018,08,06,06,13,12.70
2018,08,06,06,14,12.70
2018,08,06,06,15,12.70
2018,08,06,06,16,12.70
2018,08,06,06,17,12.70
2018,08,06,06,18,12.70
2018,08,06,06,19,12.70
2018,08,06,06,20,12.70
2018,08,06,06,21,12.70
2018,08,06,06,22,12.70
2018,08,06,06,23,12.70
2018,08,06,06,24,12.70
2018,08,06,06,25,12.70
2018,08,06,06,26,12.70
2018,08,06,06,27,12.70
2018,08,06,06,28,12.70
2018,08,06,06,29,12.70
2018,08,06,06,30,12.70
2018,08,06,06,31,12.80
2018,08,06,06,32,12.80
2018,08,06,06,33,12.80
2018,08,06,06,34,12.80
2018,08,06,06,35,12.80
2018,08,06,06,36,12.80
2018,08,06,06,37,12.80
2018,08,06,06,38,12.80
2018,08,06,06,39,12.90
2018,08,06,06,40,12.90
2018,08,06,06,41,12.90
2018,08,06,06,42,12.90
2018,08,06,06,43,13.00
2018,08,06,06,44,13.00
2018,08,06,06,45,13.00
2018,08,06,06,46,13.10
2018,08,06,06,47,13.10
2018,08,06,06,48,13.20
2018,08,06,06,49,13.20
2018,08,06,06,50,13.30
2018,08,06,06,51,13.30
2018,08,06,06,52,13.40
2018,08,06,06,53,13.40
2018,08,06,06,54,13.50
2018,08,06,06,55,13.50
2018,08,06,06,56,13.60
2018,08,06,06,57,13.70
2018,08,06,06,58,13.70
2018,08,06,06,59,13.80
2018,08,06,07,00,13.90
2018,08,06,07,01,13.90
2018,08,06,07,02,14.00
2018,08,06,07,03,14.10
2018,08,06,07,04,14.10
2018,08,06,07,05,14.20
2018,08,06,07,06,14.20
2018,08,06,07,07,14.20
2018,08,06,07,08,14.30
2018,08,06,07,09,14.30
2018,08,06,07,10,14.30
2018,08,06,07,11,14.30
2018,08,06,07,12,14.30
2018,08,06,07,13,14.40
2018,08,06,07,14,14.40
2018,08,06,07,15,14.40
2018,08,06,07,16,14.40
2018,08,06,07,17,14.40
2018,08,06,07,18,14.40
2018,08,06,07,19,14.40
2018,08,06,07,20,14.40
2018,08,06,07,21,14.40
2018,08,06,07,22,14.40
2018,08,06,07,23,14.40
2018,08,06,07,24,14.50
2018,08,06,07,25,14.50
2018,08,06,07,26,14.50
2018,08,06,07,27,14.50
2018,08,06,07,28,14.50
2018,08,06,07,29,14.60
2018,08,06,07,30,14.60
2018,08,06,07,31,14.60
2018,08,06,07,32,14.60
2018,08,06,07,33,14.70
2018,08,06,07,34,14.70
2018,08,06,07,35,14.70
2018,08,06,07,36,14.70
2018,08,06,07,37,14.70
2018,08,06,07,38,14.60
2018,08,06,07,39,14.60
2018,08,06,07,40,14.60
2018,08,06,07,41,14.60
2018,08,06,07,42,14.50
2018,08,06,07,43,14.50
2018,08,06,07,44,14.40
2018,08,06,07,45,14.30
2018,08,06,07,46,14.30
2018,08,06,07,47,14.30
2018,08,06,07,48,14.20
2018,08,06,07,49,14.20
2018,08,06,07,50,14.20
2018,08,06,07,51,14.20
2018,08,06,07,52,14.20
2018,08,06,07,53,14.20
2018,08,06,07,54,14.20
2018,08,06,07,55,14.20
2018,08,06,07,56,14.30
2018,08,06,07,57,14.30
2018,08,06,07,58,14.30
2018,08,06,07,59,14.30
2018,08,06,08,00,14.30
2018,08,06,08,01,14.30
2018,08,06,08,02,14.30
2018,08,06,08,03,14.30
2018,08,06,08,04,14.30
2018,08,06,08,05,14.30
2018,08,06,08,06,14.30
2018,08,06,08,07,14.30
2018,08,06,08,08,14.30
2018,08,06,08,09,14.30
2018,08,06,08,10,14.30
2018,08,06,08,11,14.30
2018,08,06,08,12,14.40
2018,08,06,08,13,14.50
2018,08,06,08,14,14.60
2018,08,06,08,15,14.60
2018,08,06,08,16,14.70
2018,08,06,08,17,14.70
2018,08,06,08,18,14.80
2018,08,06,08,19,14.90
2018,08,06,08,20,14.90
2018,08,06,08,21,15.00
2018,08,06,08,22,15.10
2018,08,06,08,23,15.20
2018,08,06,08,24,15.20
2018,08,06,08,25,15.20
2018,08,06,08,26,15.20
2018,08,06,08,27,15.10
2018,08,06,08,28,15.10
2018,08,06,08,29,15.00
2018,08,06,08,30,14.90
2018,08,06,08,31,14.90
2018,08,06,08,32,14.80
2018,08,06,08,33,14.80
2018,08,06,08,34,14.70
2018,08,06,08,35,14.70
2018,08,06,08,36,14.60
2018,08,06,08,37,14.60
2018,08,06,08,38,14.50
2018,08,06,08,39,14.50
2018,08,06,08,40,14.40
2018,08,06,08,41,14.40
2018,08,06,08,42,14.30
2018,08,06,08,43,14.30
2018,08,06,08,44,14.30
2018,08,06,08,45,14.30
2018,08,06,08,46,14.30
2018,08,06,08,47,14.20
2018,08,06,08,48,14.20
2018,08,06,08,49,14.10
2018,08,06,08,50,14.10
2018,08,06,08,51,14.00
2018,08,06,08,52,14.00
2018,08,06,08,53,13.90
2018,08,06,08,54,13.90
2018,08,06,08,55,13.90
2018,08,06,08,56,13.90
2018,08,06,08,57,13.90
2018,08,06,08,58,13.90
2018,08,06,08,59,13.80
2018,08,06,09,00,13.80
2018,08,06,09,01,13.80
2018,08,06,09,02,13.80
2018,08,06,09,03,13.70
2018,08,06,09,04,13.70
2018,08,06,09,05,13.80
2018,08,06,09,06,13.80
2018,08,06,09,07,13.80
2018,08,06,09,08,13.80
2018,08,06,09,09,13.90
2018,08,06,09,10,13.90
2018,08,06,09,11,13.90
2018,08,06,09,12,13.90
2018,08,06,09,13,14.00
2018,08,06,09,14,14.00
2018,08,06,09,15,14.00
2018,08,06,09,16,14.00
2018,08,06,09,17,14.10
2018,08,06,09,18,14.10
2018,08,06,09,19,14.20
2018,08,06,09,20,14.20
2018,08,06,09,21,14.20
2018,08,06,09,22,14.20
2018,08,06,09,23,14.20
2018,08,06,09,24,14.20
2018,08,06,09,25,14.20
2018,08,06,09,26,14.20
2018,08,06,09,27,14.20
2018,08,06,09,28,14.20
2018,08,06,09,29,14.20
2018,08,06,09,30,14.20
2018,08,06,09,31,14.20
2018,08,06,09,32,14.20
2018,08,06,09,33,14.20
2018,08,06,09,34,14.10
2018,08,06,09,35,14.10
2018,08,06,09,36,14.10
2018,08,06,09,37,14.10
2018,08,06,09,38,14.00
2018,08,06,09,39,14.00
2018,08,06,09,40,13.90
2018,08,06,09,41,13.90
2018,08,06,09,42,13.90
2018,08,06,09,43,13.90
2018,08,06,09,44,13.90
2018,08,06,09,45,13.90
2018,08,06,09,46,13.90
2018,08,06,09,47,13.90
2018,08,06,09,48,13.90
2018,08,06,09,49,13.90
2018,08,06,09,50,13.90
2018,08,06,09,51,13.90
2018,08,06,09,52,13.90
2018,08,06,09,53,13.90
2018,08,06,09,54,13.90
2018,08,06,09,55,13.90
2018,08,06,09,56,13.80
2018,08,06,09,57,13.80
2018,08,06,09,58,13.80
2018,08,06,09,59,13.80
2018,08,06,10,00,13.80
2018,08,06,10,01,13.70
2018,08,06,10,02,13.70
2018,08,06,10,03,13.70
2018,08,06,10,04,13.60
2018,08,06,10,05,13.60
2018,08,06,10,06,13.50
2018,08,06,10,07,13.40
2018,08,06,10,08,13.40
2018,08,06,10,09,13.40
2018,08,06,10,10,13.40
2018,08,06,10,11,13.40
2018,08,06,10,12,13.40
2018,08,06,10,13,13.50
2018,08,06,10,14,13.50
2018,08,06,10,15,13.60
2018,08,06,10,16,13.60
2018,08,06,10,17,13.60
2018,08,06,10,18,13.60
2018,08,06,10,19,13.60
2018,08,06,10,20,13.60
2018,08,06,10,21,13.70
2018,08,06,10,22,13.70
2018,08,06,10,23,13.70
2018,08,06,10,24,13.70
2018,08,06,10,25,13.70
2018,08,06,10,26,13.70
2018,08,06,10,27,13.70
2018,08,06,10,28,13.70
2018,08,06,10,29,13.70
2018,08,06,10,30,13.70
2018,08,06,10,31,13.80
2018,08,06,10,32,13.80
2018,08,06,10,33,13.80
2018,08,06,10,34,13.80
2018,08,06,10,35,13.70
2018,08,06,10,36,13.60
2018,08,06,10,37,13.60
2018,08,06,10,38,13.50
2018,08,06,10,39,13.50
2018,08,06,10,40,13.60
2018,08,06,10,41,13.60
2018,08,06,10,42,13.60
2018,08,06,10,43,13.60
2018,08,06,10,44,13.70
2018,08,06,10,45,13.70
2018,08,06,10,46,13.70
2018,08,06,10,47,13.70
2018,08,06,10,48,13.80
2018,08,06,10,49,13.80
2018,08,06,10,50,13.80
2018,08,06,10,51,13.80
2018,08,06,10,52,13.90
2018,08,06,10,53,13.90
2018,08,06,10,54,14.00
2018,08,06,10,55,14.00
2018,08,06,10,56,14.10
2018,08,06,10,57,14.20
2018,08,06,10,58,14.20
2018,08,06,10,59,14.20
2018,08,06,11,00,14.20
2018,08,06,11,01,14.20
2018,08,06,11,02,14.20
2018,08,06,11,03,14.20
2018,08,06,11,04,14.20
2018,08,06,11,05,14.20
2018,08,06,11,06,14.10
2018,08,06,11,07,14.10
2018,08,06,11,08,14.10
2018,08,06,11,09,14.00
2018,08,06,11,10,14.00
2018,08,06,11,11,14.10
2018,08,06,11,12,14.10
2018,08,06,11,13,14.10
2018,08,06,11,14,14.20
2018,08,06,11,15,14.20
2018,08,06,11,16,14.20
2018,08,06,11,17,14.20
2018,08,06,11,18,14.20
2018,08,06,11,19,14.30
2018,08,06,11,20,14.30
2018,08,06,11,21,14.30
2018,08,06,11,22,14.30
2018,08,06,11,23,14.30
2018,08,06,11,24,14.30
2018,08,06,11,25,14.30
2018,08,06,11,26,14.30
2018,08,06,11,27,14.30
2018,08,06,11,28,14.30
2018,08,06,11,29,14.30
2018,08,06,11,30,14.30
2018,08,06,11,31,14.30
2018,08,06,11,32,14.20
2018,08,06,11,33,14.20
2018,08,06,11,34,14.10
2018,08,06,11,35,14.10
2018,08,06,11,36,14.10
2018,08,06,11,37,14.10
2018,08,06,11,38,14.10
2018,08,06,11,39,14.10
2018,08,06,11,40,14.10
2018,08,06,11,41,14.10
2018,08,06,11,42,14.10
2018,08,06,11,43,14.10
2018,08,06,11,44,14.10
2018,08,06,11,45,14.10
2018,08,06,11,46,14.10
2018,08,06,11,47,14.20
2018,08,06,11,48,14.20
2018,08,06,11,49,14.30
2018,08,06,11,50,14.30
2018,08,06,11,51,14.30
2018,08,06,11,52,14.30
2018,08,06,11,53,14.30
2018,08,06,11,54,14.30
2018,08,06,11,55,14.30
2018,08,06,11,56,14.20
2018,08,06,11,57,14.20
2018,08,06,11,58,14.20
2018,08,06,11,59,14.20
2018,08,06,12,00,14.20
2018,08,06,12,01,14.20
2018,08,06,12,02,14.20
2018,08,06,12,03,14.20
2018,08,06,12,04,14.20
2018,08,06,12,05,14.20
2018,08,06,12,06,14.20
2018,08,06,12,07,14.20
2018,08,06,12,08,14.10
2018,08,06,12,09,14.10
2018,08,06,12,10,14.10
2018,08,06,12,11,14.10
2018,08,06,12,12,14.10
2018,08,06,12,13,14.10
2018,08,06,12,14,14.10
2018,08,06,12,15,14.10
2018,08,06,12,16,14.20
2018,08,06,12,17,14.20
2018,08,06,12,18,14.30
2018,08,06,12,19,14.30
2018,08,06,12,20,14.30
2018,08,06,12,21,14.40
2018,08,06,12,22,14.40
2018,08,06,12,23,14.40
2018,08,06,12,24,14.50
2018,08,06,12,25,14.50
2018,08,06,12,26,14.60
2018,08,06,12,27,14.60
2018,08,06,12,28,14.70
2018,08,06,12,29,14.70
2018,08,06,12,30,14.70
2018,08,06,12,31,14.70
2018,08,06,12,32,14.70
2018,08,06,12,33,14.70
2018,08,06,12,34,14.70
2018,08,06,12,35,14.70
2018,08,06,12,36,14.80
2018,08,06,12,37,14.80
2018,08,06,12,38,14.80
2018,08,06,12,39,14.90
2018,08,06,12,40,15.00
2018,08,06,12,41,15.10
2018,08,06,12,42,15.10
2018,08,06,12,43,15.10
2018,08,06,12,44,15.10
2018,08,06,12,45,15.10
2018,08,06,12,46,15.10
2018,08,06,12,47,15.10
2018,08,06,12,48,15.10
2018,08,06,12,49,15.10
2018,08,06,12,50,15.10
2018,08,06,12,51,15.10
2018,08,06,12,52,15.10
2018,08,06,12,53,15.10
2018,08,06,12,54,15.10
2018,08,06,12,55,15.10
2018,08,06,12,56,15.10
2018,08,06,12,57,15.20
2018,08,06,12,58,15.20
2018,08,06,12,59,15.20
2018,08,06,13,00,15.20
2018,08,06,13,01,15.30
2018,08,06,13,02,15.40
2018,08,06,13,03,15.40
2018,08,06,13,04,15.50
2018,08,06,13,05,15.60
2018,08,06,13,06,15.80
2018,08,06,13,07,15.90
2018,08,06,13,08,16.00
2018,08,06,13,09,16.10
2018,08,06,13,10,16.20
2018,08,06,13,11,16.20
2018,08,06,13,12,16.30
2018,08,06,13,13,16.40
2018,08,06,13,14,16.50
2018,08,06,13,15,16.60
2018,08,06,13,16,16.70
2018,08,06,13,17,16.70
2018,08,06,13,18,16.80
2018,08,06,13,19,16.80
2018,08,06,13,20,16.80
2018,08,06,13,21,16.80
2018,08,06,13,22,16.80
2018,08,06,13,23,16.80
2018,08,06,13,24,16.90
2018,08,06,13,25,16.90
2018,08,06,13,26,17.00
2018,08,06,13,27,17.10
2018,08,06,13,28,17.10
2018,08,06,13,29,17.10
2018,08,06,13,30,17.00
2018,08,06,13,31,16.90
2018,08,06,13,32,16.80
2018,08,06,13,33,16.70
2018,08,06,13,34,16.60
2018,08,06,13,35,16.50
2018,08,06,13,36,16.50
2018,08,06,13,37,16.80
2018,08,06,13,38,17.20
2018,08,06,13,39,17.70
2018,08,06,13,40,18.20
2018,08,06,13,41,18.70
2018,08,06,13,42,19.20
2018,08,06,13,43,19.60
2018,08,06,13,44,20.00
2018,08,06,13,45,20.30
2018,08,06,13,46,20.50
2018,08,06,13,47,20.70
2018,08,06,13,48,20.90
2018,08,06,13,49,21.10
2018,08,06,13,50,21.20
2018,08,06,13,51,21.30
2018,08,06,13,52,21.30
2018,08,06,13,53,21.30
2018,08,06,13,54,21.30
2018,08,06,13,55,21.40
2018,08,06,13,56,21.50
2018,08,06,13,57,21.60
2018,08,06,13,58,21.70
2018,08,06,13,59,21.80
2018,08,06,14,00,21.90
2018,08,06,14,01,22.00
2018,08,06,14,02,22.10
2018,08,06,14,03,22.20
2018,08,06,14,04,22.30
2018,08,06,14,05,22.20
2018,08,06,14,06,21.80
2018,08,06,14,07,21.60
2018,08,06,14,08,21.50
2018,08,06,14,09,21.60
2018,08,06,14,10,21.70
2018,08,06,14,11,21.80
2018,08,06,14,12,22.00
2018,08,06,14,13,22.20
2018,08,06,14,14,22.30
2018,08,06,14,15,22.40
2018,08,06,14,16,22.50
2018,08,06,14,17,22.60
2018,08,06,14,18,22.70
2018,08,06,14,19,22.70
2018,08,06,14,20,22.50
2018,08,06,14,21,22.30
2018,08,06,14,22,22.20
2018,08,06,14,23,22.10
2018,08,06,14,24,22.10
2018,08,06,14,25,22.10
2018,08,06,14,26,22.10
2018,08,06,14,27,21.90
2018,08,06,14,28,21.50
2018,08,06,14,29,21.30
2018,08,06,14,30,21.10
2018,08,06,14,31,21.00
2018,08,06,14,32,21.10
2018,08,06,14,33,21.20
2018,08,06,14,34,21.30
2018,08,06,14,35,21.50
2018,08,06,14,36,21.70
2018,08,06,14,37,21.80
2018,08,06,14,38,22.00
2018,08,06,14,39,22.10
2018,08,06,14,40,22.10
2018,08,06,14,41,22.00
2018,08,06,14,42,22.00
2018,08,06,14,43,22.00
2018,08,06,14,44,22.00
2018,08,06,14,45,21.90
2018,08,06,14,46,21.90
2018,08,06,14,47,21.90
2018,08,06,14,48,22.00
2018,08,06,14,49,21.90
2018,08,06,14,50,21.90
2018,08,06,14,51,22.00
2018,08,06,14,52,22.10
2018,08,06,14,53,22.20
2018,08,06,14,54,22.30
2018,08,06,14,55,22.40
2018,08,06,14,56,22.40
2018,08,06,14,57,22.30
2018,08,06,14,58,22.30
2018,08,06,14,59,22.30
2018,08,06,15,00,22.50
2018,08,06,15,01,22.50
2018,08,06,15,02,22.50
2018,08,06,15,03,22.40
2018,08,06,15,04,22.30
2018,08,06,15,05,22.00
2018,08,06,15,06,21.60
2018,08,06,15,07,21.50
2018,08,06,15,08,21.50
2018,08,06,15,09,21.60
2018,08,06,15,10,21.70
2018,08,06,15,11,21.90
2018,08,06,15,12,22.10
2018,08,06,15,13,22.30
2018,08,06,15,14,22.50
2018,08,06,15,15,22.80
2018,08,06,15,16,23.00
2018,08,06,15,17,23.20
2018,08,06,15,18,23.40
2018,08,06,15,19,23.50
2018,08,06,15,20,23.60
2018,08,06,15,21,23.60
2018,08,06,15,22,23.50
2018,08,06,15,23,23.30
2018,08,06,15,24,23.20
2018,08,06,15,25,23.00
2018,08,06,15,26,22.70
2018,08,06,15,27,22.30
2018,08,06,15,28,22.00
2018,08,06,15,29,21.70
2018,08,06,15,30,21.50
2018,08,06,15,31,21.30
2018,08,06,15,32,21.30
2018,08,06,15,33,21.20
2018,08,06,15,34,21.00
2018,08,06,15,35,20.90
2018,08,06,15,36,20.80
2018,08,06,15,37,20.80
2018,08,06,15,38,21.00
2018,08,06,15,39,21.20
2018,08,06,15,40,21.40
2018,08,06,15,41,21.70
2018,08,06,15,42,21.90
2018,08,06,15,43,22.10
2018,08,06,15,44,22.30
2018,08,06,15,45,22.60
2018,08,06,15,46,22.90
2018,08,06,15,47,23.00
2018,08,06,15,48,23.10
2018,08,06,15,49,23.20
2018,08,06,15,50,23.20
2018,08,06,15,51,23.00
2018,08,06,15,52,22.90
2018,08,06,15,53,22.60
2018,08,06,15,54,22.50
2018,08,06,15,55,22.50
2018,08,06,15,56,22.60
2018,08,06,15,57,22.80
2018,08,06,15,58,23.00
2018,08,06,15,59,23.30
2018,08,06,16,00,23.50
2018,08,06,16,01,23.70
2018,08,06,16,02,24.00
2018,08,06,16,03,24.20
2018,08,06,16,04,24.50
2018,08,06,16,05,24.70
2018,08,06,16,06,24.80
2018,08,06,16,07,24.90
2018,08,06,16,08,25.10
2018,08,06,16,09,25.20
2018,08,06,16,10,25.20
2018,08,06,16,11,25.30
2018,08,06,16,12,25.30
2018,08,06,16,13,25.30
2018,08,06,16,14,25.40
2018,08,06,16,15,25.50
2018,08,06,16,16,25.50
2018,08,06,16,17,25.60
2018,08,06,16,18,25.60
2018,08,06,16,19,25.60
2018,08,06,16,20,25.60
2018,08,06,16,21,25.60
2018,08,06,16,22,25.70
2018,08,06,16,23,25.70
2018,08,06,16,24,25.70
2018,08,06,16,25,25.80
2018,08,06,16,26,25.80
2018,08,06,16,27,25.90
2018,08,06,16,28,25.90
2018,08,06,16,29,25.90
2018,08,06,16,30,26.00
2018,08,06,16,31,26.10
2018,08,06,16,32,26.20
2018,08,06,16,33,26.20
2018,08,06,16,34,26.30
2018,08,06,16,35,26.30
2018,08,06,16,36,26.40
2018,08,06,16,37,26.40
2018,08,06,16,38,26.40
2018,08,06,16,39,26.40
2018,08,06,16,40,26.50
2018,08,06,16,41,26.50
2018,08,06,16,42,26.50
2018,08,06,16,43,26.50
2018,08,06,16,44,26.50
2018,08,06,16,45,26.50
2018,08,06,16,46,26.60
2018,08,06,16,47,26.60
2018,08,06,16,48,26.50
2018,08,06,16,49,26.60
2018,08,06,16,50,26.60
2018,08,06,16,51,26.60
2018,08,06,16,52,26.60
2018,08,06,16,53,26.70
2018,08,06,16,54,26.70
2018,08,06,16,55,26.70
2018,08,06,16,56,26.70
2018,08,06,16,57,26.70
2018,08,06,16,58,26.60
2018,08,06,16,59,26.50
2018,08,06,17,00,26.30
2018,08,06,17,01,26.00
2018,08,06,17,02,25.60
2018,08,06,17,03,25.20
2018,08,06,17,04,24.60
2018,08,06,17,05,24.00
2018,08,06,17,06,23.50
2018,08,06,17,07,23.10
2018,08,06,17,08,22.90
2018,08,06,17,09,22.70
2018,08,06,17,10,22.40
2018,08,06,17,11,22.00
2018,08,06,17,12,21.60
2018,08,06,17,13,21.30
2018,08,06,17,14,21.00
2018,08,06,17,15,20.80
2018,08,06,17,16,20.60
2018,08,06,17,17,20.50
2018,08,06,17,18,20.50
2018,08,06,17,19,20.40